Location: Favalello
(42.2939°N, 9.2706°E)
Time: 15:01:50
(UTC+00:00)

Meteor 1-27 Rocket - Pass Details

Date: 06 December 2019
Orbit: 830 x 909 km, 81.3° (Epoch: 27 January)

Event Time Altitude Azimuth Distance (km) Brightness Sun altitude
Rises 16:34:48 0° 166° (SSE) 3,411 7.0 -8.1°
Reaches altitude 10° 16:37:20 10° 159° (SSE) 2,492 6.2 -8.6°
Maximum altitude 16:42:33 40° 91° (E) 1,278 4.2 -9.5°
Drops below altitude 10° 16:47:54 10° 24° (NNE) 2,558 5.8 -10.4°
Sets 16:50:31 0° 18° (NNE) 3,513 6.6 -10.8°
